date,batt_volt,AirTemp_C,Solar_kW,RH,Manual_BP,StationID,WS_ms,PTemp,WS_15min_max,Prog_Sig,Solar_Raw,Bar_mbar,Solar_MJ,Max_WS_2min,Pressure_Raw,Rain_mm,WD_15min_ave,Max_AirTemp_1min,WindDir,WS_15min_med,WS_15min_ave,Elevation_Correction
2023-02-01T00:14:07Z,13.8888,-7.403126,0.0,78.17811,0,1156,1.7248,-7.261455,3.7044,43690,0.0,1019.612,0.0,3.587,1017.811,0,330.699723956,-7.233,8.591434,1.7444,1.83617411353,1.80078
2023-02-01T00:29:08Z,13.89434,-7.335144,0.0,73.75934,0,1156,2.3128,-7.505455,4.6844,43690,0.0,1019.612,0.0,5.253,1017.811,0,333.19203854,-7.267,324.6645,2.254,2.25273176353,1.80078
2023-02-01T00:44:03Z,13.89987,-7.606472,0.0,70.46357,0,1156,2.7636,-7.726864,4.7236,43690,0.0,1019.612,0.0,2.744,1017.811,0,330.389116859,-7.504,315.017,1.8032,1.82952662308,1.80078
2023-02-01T00:59:05Z,13.91165,-8.012137,0.0,70.26452,0,1156,2.1952,-7.973122,3.6064,43690,0.0,1019.612,0.0,3.41,1017.811,0,335.214752247,-7.91,341.6602,1.7542,1.74543764176,1.80078
2023-02-01T01:14:08Z,13.92022,-8.279385,0.0,71.53287,0,1156,2.3128,-8.239712,3.6652,43690,0.0,1019.723,0.0,3.058,1017.922,0,329.480399637,-8.28,332.176,1.96,1.99402263899,1.80078
2023-02-01T01:29:55Z,13.92672,-8.480328,0.0,71.74381,0,1156,2.7244,-8.508564,4.1552,43690,0.0,1019.723,0.0,3.391,1017.922,0,338.45547437,-8.41,350.8693,2.4108,2.38955688563,1.80078
2023-02-01T01:44:54Z,13.93228,-8.752133,0.0,73.10437,0,1156,1.4896,-8.75708,3.7632,43690,0.0,1019.723,0.0,1.98,1017.922,0,334.639301964,-8.58,322.4331,1.8032,1.86596961519,1.80078
2023-02-01T01:59:54Z,13.94336,-9.024149,0.0,73.37639,0,1156,1.6268,-9.02819,3.626,43690,0.0,1019.723,0.0,3.626,1017.922,0,346.818936814,-8.92,17.4784,1.5484,1.51104470176,1.80078
2023-02-01T02:14:54Z,13.9489,-9.228161,0.0,74.05642,0,1156,0.1568,-9.299301,2.8616,43690,0.0,1019.788,0.0,2.862,1017.987,0,330.422495123,-9.13,260.4137,1.2152,1.24333175765,1.80078
2023-02-01T02:29:55Z,13.95997,-9.36327,0.0,73.85458,0,1156,1.4308,-9.595261,3.8808,43690,0.0,1019.788,0.0,3.881,1017.987,0,332.936534614,-9.3,354.5034,1.519,1.55208940882,1.80078
2023-02-01T02:44:54Z,13.97301,-9.461639,0.0,74.16945,0,1156,1.0388,-9.846039,3.2732,43690,0.0,1019.788,0.0,2.528,1017.987,0,342.836186992,-9.46,348.123,1.4896,1.47956941,1.80078
2023-02-01T02:59:54Z,13.97341,-9.631035,0.0,74.27303,0,1156,1.47,-10.07422,2.1756,43690,0.0,1019.788,0.0,1.45,1017.987,0,12.415750618,-9.63,347.4543,0.89179995,0.911054106471,1.80078
2023-02-01T03:14:53Z,13.9861,-9.96933,0.0,75.19571,0,1156,0.4704,-10.34985,3.3908,43690,0.0,1020.202,0.0,1.823,1018.401,0,336.781105355,-9.9,322.024,1.519,1.52476470118,1.80078
2023-02-01T03:29:52Z,13.98681,-10.23818,0.0,76.08821,0,1156,0.9995999,-10.60289,3.038,43690,0.0,1020.202,0.0,2.803,1018.401,0,332.595277014,-10.07,336.0656,1.274,1.31896469941,1.80078
2023-02-01T03:44:53Z,13.99242,-10.20409,0.0,74.5238,0,1156,2.1952,-10.78815,4.3512,43690,0.0,1020.202,0.0,3.332,1018.401,0,343.867844468,-10.07,328.1938,1.862,1.89013175882,1.80078
2023-02-01T03:59:54Z,13.98688,-10.17007,0.0,73.60543,0,1156,2.352,-10.83559,3.9984,43690,0.0,1020.202,0.0,2.587,1018.401,0,344.095481264,-10.2,337.5397,1.9796,2.06157411588,1.80078
2023-02-01T04:14:54Z,13.99242,-10.4762,0.0,72.44897,0,1156,1.3132,-10.88078,3.2536,43690,0.0,1021.27,0.0,2.176,1019.469,0,2.63460450983,-10.37,342.2972,1.3622,1.40485881941,1.80078
2023-02-01T04:29:54Z,13.99242,-10.61225,0.0,72.89114,0,1156,2.156,-10.95081,4.508,43690,0.0,1021.27,0.0,3.685,1019.469,0,357.347647504,-10.65,342.0799,1.8326,1.85231529118,1.80078
2023-02-01T04:44:54Z,13.99796,-11.02041,0.0,73.40134,0,1156,3.4104,-11.02085,3.6848,43690,0.0,1021.27,0.0,2.862,1019.469,0,3.71536759988,-10.92,345.4125,1.7248,1.83651999824,1.80078
2023-02-01T04:59:54Z,14.0035,-11.25851,0.0,73.33332,0,1156,2.156,-11.13833,4.018,43690,0.0,1021.27,0.0,2.548,1019.469,0,351.676363562,-11.02,330.9469,1.666,1.70427764412,1.80078
2023-02-01T05:14:54Z,14.00904,-11.4966,0.0,71.12244,0,1156,0.0196,-11.32359,4.802,43690,0.0,1021.76,0.0,2.999,1019.959,0,350.343833321,-11.29,108.7459,1.6562,1.77356940765,1.80078
2023-02-01T05:29:55Z,14.02011,-11.53062,0.0,66.42856,0,1156,1.3524,-11.55855,4.5472,43690,0.0,1021.76,0.0,2.764,1019.959,0,7.29060285131,-11.43,21.63809,1.3524,1.43644940882,1.80078
2023-02-01T05:44:55Z,14.02565,-11.87075,0.0,64.89795,0,1156,2.9596,-11.76866,4.1944,43690,0.0,1021.76,0.0,2.979,1019.959,0,9.87559296904,-11.77,38.05986,1.6954,1.79501411471,1.80078
2023-02-01T05:59:54Z,14.03135,-12.14286,0.0,63.7755,0,1156,1.0388,-11.93359,5.0176,43690,0.0,1021.76,0.0,5.018,1019.959,0,32.299872498,-12.07,49.60339,2.4794,2.50603294,1.80078
2023-02-01T06:14:55Z,14.03151,-12.17566,0.0,62.07753,0,1156,1.4896,-12.07592,5.5468,43690,0.0,1021.515,0.0,5.135,1019.714,0,43.2181234646,-12.11,57.59944,3.0968,3.08815294118,1.80078
2023-02-01T06:29:56Z,14.03232,-12.58265,0.0,65.24377,0,1156,2.7048,-12.21825,5.0372,43690,0.0,1021.515,0.0,4.822,1019.714,0,28.8727058716,-12.51,33.18451,2.6068,2.62259529412,1.80078
2023-02-01T06:44:56Z,14.03979,-12.7143,0.0,66.275,0,1156,2.3324,-12.38544,5.0568,43690,0.0,1021.515,0.0,4.508,1019.714,0,37.0087359185,-12.68,50.00225,2.8812,2.84223058765,1.80078
2023-02-01T07:01:37Z,14.04095,-12.81455,0.0,66.89185,0,1156,4.1356,-12.52777,4.998,43690,0.0,1022.247,0.0,4.704,1020.447,0,41.9368699091,-12.75,7.947746,3.136,3.16563058824,1.80078
2023-02-01T07:16:33Z,14.0414,-12.6778,0.0,66.99554,0,1156,4.9392,-12.64751,6.0564,43690,0.0,1022.247,0.0,4.88,1020.447,0,41.3065721731,-12.61,47.39772,3.6456,3.67505798817,1.80078
2023-02-01T07:31:33Z,14.04705,-12.77986,0.0,66.58726,0,1156,4.1944,-12.6701,6.8992,43690,0.0,1022.247,0.0,6.233,1020.447,0,42.2806501205,-12.61,23.86798,4.3512,4.35029139073,1.80078
2023-02-01T07:46:38Z,14.05259,-12.81389,0.0,65.49846,0,1156,1.8816,-12.71981,6.781599,43690,0.0,1022.247,0.0,5.958,1020.447,0,33.1352581686,-12.71,4.155154,3.7828,3.72468771345,1.80078
2023-02-01T08:01:36Z,14.05259,-13.01804,-0.000483985,65.83872,0,1156,2.5676,-12.76725,6.3308,43690,0.0,1023.407,-2.419925e-06,4.528,1021.606,0,26.9850138242,-12.92,61.40931,3.2536,3.18465411765,1.80078
2023-02-01T08:16:35Z,14.05813,-13.22219,0.0,65.90676,0,1156,5.1548,-12.86214,5.5076,43690,0.0,1023.407,0.0,5.508,1021.606,0,33.6501699783,-13.12,12.00646,3.0772,3.10948235294,1.80078
2023-02-01T08:31:37Z,14.05813,-13.32427,0.0,65.60053,0,1156,3.6064,-13.00673,6.8992,43690,0.0,1023.407,0.0,6.899,1021.606,0,33.5481983043,-13.22,15.82341,3.5476,3.55555529412,1.80078
2023-02-01T08:46:34Z,14.06367,-13.49439,0.0,66.51921,0,1156,3.2144,-13.17617,6.389599,43690,0.0,1023.407,0.0,5.645,1021.606,0,31.7642549749,-13.56,352.1493,2.7048,2.73982484556,1.80078
2023-02-01T09:01:38Z,14.07476,-13.80062,0.0,67.94827,0,1156,3.9984,-13.39306,4.4884,43690,0.0,1022.998,0.0,3.783,1021.198,0,15.9884601043,-13.8,0.7730519,1.911,2.03390352765,1.80078
2023-02-01T09:16:35Z,14.0803,-13.83464,0.0,67.50594,0,1156,2.7636,-13.61221,5.7428,43690,0.0,1022.998,0.0,5.743,1021.198,0,10.527005406,-13.8,0.1449472,2.352,2.43515502781,1.80078
2023-02-01T09:31:38Z,14.08088,-14.10593,0.0,69.0055,0,1156,3.7632,-13.7568,6.2132,43690,0.0,1022.998,0.0,4.88,1021.198,0,28.1992255501,-13.97,20.4866,3.136,3.18257882294,1.80078
2023-02-01T09:46:35Z,14.08238,-14.10309,0.0,69.2853,0,1156,0.6468,-13.85621,5.9584,43690,0.0,1022.998,0.0,2.822,1021.198,0,31.575746322,-14.04,57.84234,2.2932,2.35362366746,1.80078
2023-02-01T10:01:36Z,14.09377,-14.71503,0.0,71.46492,0,1156,2.1952,-14.10021,2.7048,43690,0.0,1022.923,0.0,2.117,1021.122,0,341.038653946,-14.54,282.5981,1.0584,1.08883764235,1.80078
2023-02-01T10:16:37Z,14.10486,-14.74903,0.0,73.84718,0,1156,0.7252,-14.56788,2.8028,43690,0.0,1022.923,0.0,1.235,1021.122,0,285.012928647,-14.75,31.57971,1.8718,1.73978823118,1.80078
2023-02-01T10:31:36Z,14.12889,-15.15405,0.0,73.99327,0,1156,0.8624,-15.01746,2.3128,43690,0.0,1022.923,0.0,1.901,1021.122,0,335.961195369,-15.02,307.8651,1.1466,1.19121881588,1.80078
2023-02-01T10:46:36Z,14.13496,-15.08512,0.0,74.33622,0,1156,0.392,-15.46932,1.9796,43690,0.0,1022.923,0.0,0.706,1021.122,0,308.117554711,-15.05,243.9807,0.3332,0.406757642941,1.80078
2023-02-01T11:01:37Z,14.15161,-15.18721,0.0,75.25526,0,1156,1.0192,-15.87598,2.0188,43690,0.0,1023.094,0.0,0.49,1021.293,0,258.430673296,-15.19,330.5922,0.5782,0.609675285882,1.80078
2023-02-01T11:16:39Z,14.15161,-15.4934,0.0,75.7322,0,1156,1.8228,-16.20809,1.8228,43690,0.0,1023.094,0.0,1.823,1021.293,0,88.8734752707,-15.46,39.22179,0.9897999,0.881999991765,1.80078
2023-02-01T11:31:38Z,14.15161,-15.5954,0.002905682,75.4262,0,1156,2.156,-16.36398,2.744,43690,0.2033978,1023.094,1.452841e-05,2.705,1021.293,0,59.501965029,-15.39,58.91752,2.0776,1.99003786864,1.80078
2023-02-01T11:46:42Z,14.14679,-15.52631,0.007264209,75.08895,0,1156,2.3716,-16.38883,3.136,43690,0.5084946,1023.094,3.632104e-05,2.587,1021.293,0,74.075293071,-15.53,76.80381,2.0188,2.05972941176,1.80078
2023-02-01T12:01:41Z,14.14621,-15.59493,0.0150127,74.71288,0,1156,2.4304,-16.33687,3.1752,43690,1.050889,1023.93,7.50635e-05,3.077,1022.13,0,69.4924530833,-15.42,63.09954,2.1364,2.15634792899,1.80078
2023-02-01T12:16:40Z,14.14639,-15.15264,0.01598126,70.66182,0,1156,3.6456,-16.2352,4.1748,43690,1.118688,1023.93,7.99063e-05,4.175,1022.13,0,62.0586254096,-15.15,61.55237,2.7244,2.78401183432,1.80078
2023-02-01T12:31:43Z,14.13529,-15.22119,0.02082407,68.61824,0,1156,3.1164,-16.05446,4.8216,43690,1.457685,1023.93,0.0001041203,4.704,1022.13,0,61.1744229728,-15.09,62.25199,3.5672,3.59590823529,1.80078
2023-02-01T12:46:40Z,14.12945,-14.81279,0.0251808,67.15454,0,1156,3.92,-15.82402,4.998,43690,1.762656,1023.93,0.000125904,4.9,1022.13,0,55.2469982753,-14.81,58.5303,3.92,3.89831242604,1.80078
2023-02-01T13:01:40Z,14.1239,-14.5405,0.02759952,66.78014,0,1156,4.2924,-15.54613,4.802,43690,1.931967,1024.81,0.0001379976,3.998,1023.009,0,55.9194602882,-14.51,51.90879,3.6064,3.53480235294,1.80078
2023-02-01T13:16:41Z,14.11835,-14.06398,0.03244132,66.98436,0,1156,2.8616,-15.2931,4.2924,43690,2.270892,1024.81,0.0001622066,3.567,1023.009,0,53.185136171,-14.0,46.30225,2.9596,2.97620235294,1.80078
2023-02-01T13:31:41Z,14.10727,-13.68958,0.05422842,66.47381,0,1156,1.4308,-14.99261,3.626,43690,3.795989,1024.81,0.0002711421,3.077,1023.009,0,58.1206065096,-13.55,86.6113,2.3716,2.41933176471,1.80078
2023-02-01T13:46:41Z,14.08446,-13.01134,0.3190398,64.11933,0,1156,1.6072,-14.39617,3.8416,43690,22.33278,1024.81,0.001595199,2.764,1023.009,0,53.4207979202,-13.01,50.59913,2.5186,2.45149882353,1.80078
2023-02-01T14:01:42Z,14.03724,-11.92721,0.3582119,58.2553,0,1156,0.5096,-13.05418,3.1948,43690,25.07483,1024.597,0.00179106,1.705,1022.796,0,57.4590919248,-11.72,102.6784,1.3426,1.38433646412,1.80078
2023-02-01T14:16:43Z,13.98321,-11.76567,0.3900736,56.87686,0,1156,1.6856,-11.16092,3.3712,43690,27.30516,1024.597,0.001950368,3.371,1022.796,0,47.9746082282,-11.66,45.88929,1.3916,1.40232234941,1.80078
2023-02-01T14:31:42Z,13.92947,-10.48065,0.418969,53.59736,0,1156,0.4704,-9.254116,2.5284,43690,29.32783,1024.597,0.002094845,2.528,1022.796,0,84.8337513929,-10.38,34.48051,1.2936,1.29881892899,1.80078
2023-02-01T14:46:46Z,13.86859,-9.982551,0.4449504,53.13394,0,1156,0.49,-7.349567,3.2144,43690,31.14653,1024.597,0.002224752,1.47,1022.796,0,49.3176902359,-10.05,198.98,1.2348,1.28310822824,1.80078
2023-02-01T15:01:46Z,13.82166,-10.32833,0.4694581,51.72998,0,1156,0.9604,-5.591869,3.5672,43690,32.86206,1023.75,0.00234729,3.156,1021.949,0,2.29829583075,-10.33,44.35388,1.274,1.27875502604,1.80078
2023-02-01T15:16:46Z,13.79045,-10.26767,0.488685,48.48918,0,1156,2.0384,-4.290543,3.6848,43690,34.20795,1023.75,0.002443425,2.332,1021.949,0,9.80959664251,-10.06,20.0243,1.2348,1.29499171124,1.80078
2023-02-01T15:31:44Z,13.77651,-9.458326,0.5060146,55.85152,0,1156,0.5292,-3.407173,2.744,43690,35.42102,1023.75,0.002530073,2.058,1021.949,0,25.9930061862,-9.53,95.61479,1.1564,1.24396212722,1.80078
2023-02-01T15:46:43Z,13.75228,-8.376017,0.5180951,58.56042,0,1156,0.8231999,-2.677437,3.0772,43690,36.26666,1023.75,0.002590475,1.333,1021.949,0,138.707462707,-8.38,239.6758,1.3524,1.42175384142,1.80078
2023-02-01T16:01:47Z,13.74108,-8.682053,0.525676,55.19703,0,1156,1.3132,-1.970291,2.9204,43690,36.79732,1023.418,0.00262838,2.92,1021.617,0,224.293125848,-8.55,267.6248,1.3328,1.48544940588,1.80078
2023-02-01T16:16:46Z,13.72793,-8.381193,0.5324145,57.83762,0,1156,2.1168,-1.394184,3.2732,43690,37.26902,1023.418,0.002662073,3.273,1021.617,0,236.064209029,-8.349999,252.6577,1.4112,1.48670058876,1.80078
2023-02-01T16:31:45Z,13.72003,-8.386743,0.5338633,54.22811,0,1156,1.2348,-0.9897766,2.5284,43690,37.37043,1023.418,0.002669316,1.842,1021.617,0,232.585355309,-8.42,239.7392,1.1172,1.15036922485,1.80078
2023-02-01T16:46:45Z,13.70323,-6.994892,0.532832,56.36675,0,1156,1.8424,-0.5424461,2.548,43690,37.29824,1023.418,0.00266416,1.94,1021.617,0,259.492949048,-7.233,236.0721,1.3328,1.35077632426,1.80078
2023-02-01T17:01:44Z,13.68664,-6.893028,0.5283974,52.83533,0,1156,2.7048,-0.03185272,3.038,43690,36.98782,1022.344,0.002641987,2.764,1020.543,0,269.152581868,-7.029,258.7342,1.4112,1.41027218462,1.80078
2023-02-01T17:16:47Z,13.68004,-6.421833,0.5167794,49.87496,0,1156,3.1556,0.2663651,4.1748,43690,36.17456,1022.344,0.002583897,3.018,1020.543,0,261.315653599,-6.456,274.7081,2.548,2.54707764706,1.80078
2023-02-01T17:31:47Z,13.67938,-6.593067,0.5047046,51.16285,0,1156,2.9204,0.3296242,4.8608,43690,35.32932,1022.344,0.002523523,5.037,1020.543,0,286.416625654,-6.288,303.0912,2.6166,2.66882823529,1.80078
2023-02-01T17:46:46Z,13.68001,-6.285274,0.4887666,50.9965,0,1156,3.43,0.2663651,4.3708,43690,34.21366,1022.344,0.002443833,3.724,1020.543,0,278.63870777,-5.64,279.656,2.9988,2.83024,1.80078
2023-02-01T18:01:45Z,13.68096,-5.672493,0.4684818,49.98031,0,1156,3.3712,0.2234421,4.1356,43690,32.79372,1021.016,0.002342409,2.607,1019.215,0,265.770993223,-5.604,275.6675,2.352,2.46833176471,1.80078
2023-02-01T18:16:46Z,13.66843,-5.570248,0.4448162,55.75311,0,1156,1.7444,0.2867012,4.6256,43690,31.13713,1021.016,0.002224081,3.234,1019.215,0,269.564664492,-5.604,243.6315,2.7734,2.74146352941,1.80078
2023-02-01T18:31:45Z,13.6568,-5.946491,0.4187358,50.24845,0,1156,2.4696,0.4358101,3.7044,43690,29.3115,1021.016,0.002093679,1.803,1019.215,0,269.334853489,-5.845,254.6524,1.8228,1.84020940529,1.80078
2023-02-01T18:46:45Z,13.64949,-6.021328,0.3907234,48.50702,0,1156,0.3724,0.6278458,4.2924,43690,27.35064,1021.016,0.001953617,3.371,1019.215,0,303.062332008,-5.852,282.3162,2.1168,2.06837646765,1.80078
2023-02-01T19:01:45Z,13.64914,-6.190312,0.3593304,48.16862,0,1156,2.4696,0.7566262,3.822,43690,25.15312,1020.804,0.001796652,2.47,1019.004,0,328.020647315,-6.224,336.5262,1.2152,1.25889646588,1.80078
2023-02-01T19:16:47Z,13.6499,-6.598274,0.3231075,43.48334,0,1156,0.7252,0.7566262,5.0372,43690,22.61753,1020.804,0.001615538,3.45,1019.004,0,317.637905515,-6.428,14.07489,2.5088,2.50856940941,1.80078
2023-02-01T19:31:47Z,13.65991,-6.021549,0.2873677,45.21408,0,1156,2.5088,0.541996,3.9788,43690,20.11574,1020.804,0.001436838,3.43,1019.004,0,310.669237745,-5.886,322.7552,2.1364,2.04762352824,1.80078
2023-02-01T19:46:48Z,13.67331,-6.217396,0.2274793,41.6256,0,1156,1.666,0.2234421,3.6848,43690,15.92355,1020.804,0.001137396,3.156,1019.004,0,315.517216829,-6.184,325.12,2.2932,2.28143999824,1.80078
2023-02-01T20:01:48Z,13.6921,-6.825241,0.2091459,40.88271,0,1156,1.4112,-0.3074837,4.508,43690,14.64021,1021.119,0.00104573,4.508,1019.318,0,344.464312662,-6.656,320.5476,1.568,1.67176470059,1.80078
2023-02-01T20:16:50Z,13.72534,-7.232601,0.1048333,40.33955,0,1156,0.9604,-1.181812,3.3516,43690,7.33833,1021.119,0.0005241664,1.98,1019.318,0,353.951878265,-7.165001,23.77114,1.323,1.33648940412,1.80078
2023-02-01T20:31:51Z,13.77385,-7.562058,0.1048521,42.11838,0,1156,2.3716,-2.483143,3.3908,43690,7.339648,1021.119,0.0005242606,2.352,1019.318,0,10.5369146755,-7.460001,339.9656,1.7738,1.81657411588,1.80078
2023-02-01T20:46:52Z,13.81477,-8.337744,0.02513132,44.6397,0,1156,0.5096,-3.816097,3.2536,43690,1.759192,1021.119,0.0001256566,1.862,1019.318,0,14.3800354818,-8.17,21.37066,1.7346,1.72422352529,1.80078
2023-02-01T21:01:51Z,13.85078,-8.637607,0.03625262,48.1479,0,1156,0.8231999,-5.090317,2.156,43690,2.537683,1020.819,0.0001812631,1.039,1019.018,0,24.0857214007,-8.57,37.61074,0.9897999,1.06796940294,1.80078
2023-02-01T21:16:52Z,13.88158,-8.969689,0.01208633,51.32067,0,1156,1.2152,-6.224461,1.96,43690,0.8460429,1020.819,6.043163e-05,1.156,1019.018,0,29.8542274833,-8.87,27.72641,0.9015999,0.932498811765,1.80078
2023-02-01T21:31:52Z,13.89983,-9.476622,0.003384722,54.24868,0,1156,1.47,-7.150753,1.6464,43690,0.2369305,1020.819,1.692361e-05,1.646,1019.018,0,56.7822861662,-9.41,68.85197,0.89179995,0.867588228824,1.80078
2023-02-01T21:46:52Z,13.92202,-9.917948,0.0,54.14769,0,1156,1.3524,-7.905342,2.8616,43690,0.0,1020.819,0.0,2.058,1019.018,0,55.6711521418,-9.78,70.71152,1.5484,1.56465646941,1.80078
2023-02-01T22:01:51Z,13.94766,-10.35219,0.0,57.11963,0,1156,0.8428,-8.689304,1.9404,43690,0.0,1020.724,0.0,1.156,1018.923,0,108.544628387,-10.25,126.1065,1.078,1.08733880706,1.80078
2023-02-01T22:16:51Z,13.97102,-11.33633,0.0,68.17399,0,1156,0.882,-9.434857,2.3128,43690,0.0,1020.724,0.0,1.235,1018.923,0,81.7533945862,-11.2,82.75675,1.2348,1.25336234471,1.80078
2023-02-01T22:31:50Z,13.98951,-11.74031,0.0,70.53021,0,1156,0.7056,-10.16686,1.4896,43690,0.0,1020.724,0.0,1.392,1018.923,0,87.215890517,-11.67,66.92956,1.0878,1.09010586588,1.80078
2023-02-01T22:46:49Z,14.00863,-12.14341,0.0,73.80806,0,1156,0.5684,-10.78815,1.4308,43690,0.0,1020.724,0.0,0.9020001,1018.923,0,53.173979933,-12.11,31.73202,0.8428,0.838072928235,1.80078
2023-02-01T23:01:50Z,14.02011,-12.38096,0.0,71.59862,0,1156,0.6664,-11.39363,1.0192,43690,0.0,1021.596,0.0,0.784,1019.796,0,104.203691858,-12.28,99.06186,0.6272,0.633771754118,1.80078
2023-02-01T23:16:51Z,14.03119,-12.89116,0.0,75.23808,0,1156,1.0388,-11.911,1.0976,43690,0.0,1021.596,0.0,0.9020001,1019.796,0,116.805245224,-12.76,97.08162,0.686,0.656484694706,1.80078
2023-02-01T23:31:52Z,14.04369,-13.0253,0.0,75.20942,0,1156,1.1172,-12.36058,1.764,43690,0.0,1021.596,0.0,1.509,1019.796,0,96.2258601281,-12.96,77.38101,1.4406,1.39990117059,1.80078
2023-02-01T23:46:51Z,14.05791,-13.01918,0.0,72.64067,0,1156,1.9992,-12.7424,1.9992,43690,0.0,1021.596,0.0,1.901,1019.796,0,96.3315646187,-13.02,92.7623,1.4308,1.43241411529,1.80078
2023-02-02T00:01:52Z,14.06367,-13.22222,0.0,73.86858,0,1156,1.2544,-13.05418,2.058,43690,0.0,1021.038,0.0,1.784,1019.237,0,109.790907843,-13.39,112.6964,1.7052,1.69274823529,1.80078
2023-02-02T00:16:52Z,14.06922,-13.49439,0.0,75.91016,0,1156,1.2348,-13.34336,1.5484,43690,0.0,1021.038,0.0,1.313,1019.237,0,94.5666260655,-13.22,90.61618,1.176,1.17599999529,1.80078
2023-02-02T00:31:54Z,14.07476,-12.88194,0.0,70.63626,0,1156,0.7644,-13.56251,1.5876,43690,0.0,1021.038,0.0,1.254,1019.237,0,109.159635692,-12.85,112.3341,1.1564,1.16389410529,1.80078
2023-02-02T00:46:53Z,14.0806,-13.11905,0.0,72.81675,0,1156,1.2152,-13.7568,1.764,43690,0.0,1021.038,0.0,1.45,1019.237,0,108.443566344,-13.02,99.63101,1.4112,1.40980828343,1.80078
2023-02-02T01:01:53Z,14.08176,-13.21889,0.0,77.45083,0,1156,1.1564,-13.83136,1.4308,43690,0.0,1021.995,0.0,0.9410001,1020.194,0,117.969868168,-13.22,100.9923,0.7448,0.783652057988,1.80078
2023-02-02T01:16:53Z,14.08166,-12.87869,0.0,76.97416,0,1156,1.2544,-13.85621,1.4308,43690,0.0,1021.995,0.0,1.431,1020.194,0,81.7214930522,-13.05,87.17204,1.1368,1.12926152959,1.80078
2023-02-02T01:31:53Z,14.08263,-12.36753,0.0,72.65434,0,1156,0.3332,-13.85621,1.3524,43690,0.0,1021.995,0.0,0.9020001,1020.194,0,102.150560418,-12.37,89.10722,0.784,0.796873359172,1.80078
2023-02-02T01:46:59Z,14.07047,-13.11663,0.0,79.15282,0,1156,0.7448,-13.7568,0.9211999,43690,0.0,1021.995,0.0,0.706,1020.194,0,76.5459327782,-13.01,24.25765,0.441,0.426011761176,1.80078
2023-02-02T02:01:58Z,14.07027,-12.47297,0.0,74.58498,0,1156,1.0584,-13.68451,1.5092,43690,0.0,1021.047,0.0,0.9410001,1019.246,0,4.80149933942,-12.34,45.73195,0.7448,0.68414436568,1.80078
2023-02-02T02:16:57Z,14.06925,-12.88181,0.0,73.90302,0,1156,1.3328,-13.65965,1.5484,43690,0.0,1021.047,0.0,1.548,1019.246,0,66.4218744244,-12.61,87.76595,1.176,1.18063904793,1.80078
2023-02-02T02:31:56Z,14.07492,-13.56125,0.0,75.30109,0,1156,1.862,-13.7568,2.2344,43690,0.0,1021.047,0.0,2.234,1019.246,0,86.505700856,-13.49,68.82886,1.5484,1.61265088757,1.80078
2023-02-02T02:46:56Z,14.08192,-11.92545,0.0,69.28459,0,1156,2.156,-13.8788,2.744,43690,0.0,1021.047,0.0,2.744,1019.246,0,66.8016535582,-11.86,61.32094,2.0384,2.058,1.80078
2023-02-02T03:02:00Z,14.07663,-11.41433,0.0,68.53754,0,1156,1.9992,-13.85621,2.842,43690,0.0,1021.526,0.0,2.803,1019.725,0,59.0010392345,-11.35,57.72229,2.1854,2.20523058824,1.80078
2023-02-02T03:16:59Z,14.06425,-11.45051,0.0,68.43031,0,1156,2.0384,-13.70936,2.5872,43690,0.0,1021.526,0.0,1.96,1019.725,0,76.1382814676,-11.42,102.5829,1.9404,1.9522295858,1.80078
2023-02-02T03:31:56Z,14.06369,-11.48647,0.0,71.45396,0,1156,1.6268,-13.58736,2.7636,43690,0.0,1021.526,0.0,2.391,1019.725,0,88.1830528328,-11.66,105.3058,1.8816,1.87151005917,1.80078
2023-02-02T03:46:57Z,14.06922,-11.65701,0.0,74.20895,0,1156,1.2348,-13.53766,2.352,43690,0.0,1021.526,0.0,1.529,1019.725,0,96.7799482535,-11.9,107.5509,1.7542,1.73310117647,1.80078
2023-02-02T04:01:57Z,14.06368,-12.13337,0.0,76.62473,0,1156,0.49,-13.51506,1.7052,43690,0.0,1020.63,0.0,0.7640001,1018.83,0,107.812786366,-12.2,98.56415,0.7056,0.866204703529,1.80078
2023-02-02T04:16:56Z,14.06922,-12.09935,0.0,80.02725,0,1156,0.8624,-13.53766,1.568,43690,0.0,1020.63,0.0,1.45,1018.83,0,100.425359807,-12.13,115.9578,0.9995999,0.925581162353,1.80078
2023-02-02T04:31:56Z,14.06922,-11.62299,0.0,77.44133,0,1156,1.0192,-13.51506,1.4112,43690,0.0,1020.63,0.0,1.215,1018.83,0,84.557831193,-11.49,107.8408,0.9408,0.942644678235,1.80078
2023-02-02T04:46:56Z,14.06368,-11.96325,0.0,79.07454,0,1156,1.0192,-13.51506,1.5092,43690,0.0,1020.63,0.0,1.235,1018.83,0,79.8015821636,-12.0,106.0048,1.0192,1.04248939235,1.80078
2023-02-02T05:01:59Z,14.06922,-11.92922,0.0,78.70026,0,1156,0.5292,-13.49021,1.3524,43690,0.0,1020.467,0.0,1.333,1018.666,0,72.6486886326,-11.62,47.92924,0.7056,0.715861162353,1.80078
2023-02-02T05:17:02Z,14.06922,-11.79312,0.0,79.10857,0,1156,0.9408,-13.44051,1.3328,43690,0.0,1020.467,0.0,1.117,1018.666,0,84.1532992295,-11.59,86.58185,0.9113999,0.908632913529,1.80078
2023-02-02T05:32:00Z,14.06368,-11.38482,0.0,79.95919,0,1156,0.9408,-13.39306,1.3328,43690,0.0,1020.467,0.0,1.333,1018.666,0,95.2715884345,-11.42,122.2389,0.9015999,0.906934888166,1.80078
2023-02-02T05:46:57Z,14.05814,-11.11262,0.0,80.50359,0,1156,1.1956,-13.29591,1.47,43690,0.0,1020.467,0.0,1.47,1018.666,0,86.2863845849,-11.11,23.2882,0.9995999,0.992177494083,1.80078
2023-02-02T06:02:01Z,14.0526,-10.36406,0.0,77.37327,0,1156,0.294,-13.07903,1.5876,43690,0.0,1020.712,0.0,1.372,1018.911,0,62.2428888887,-10.3,88.442,0.97019995,0.949792922941,1.80078
2023-02-02T06:16:59Z,14.03597,-10.50016,0.0,81.35422,0,1156,0.3332,-12.6701,1.6464,43690,0.0,1020.712,0.0,1.646,1018.911,0,84.6662547097,-10.19,72.42533,0.7056,0.679969218935,1.80078
2023-02-02T06:32:02Z,14.01799,-9.754751,0.0,80.56328,0,1156,0.8035999,-12.19566,1.8032,43690,0.0,1020.712,0.0,0.96,1018.911,0,45.3862740221,-9.62,53.91479,0.8428,0.854675272941,1.80078
2023-02-02T06:47:00Z,13.99825,-9.557246,0.0,82.21245,0,1156,0.784,-11.58114,1.078,43690,0.0,1020.712,0.0,0.882,1018.911,0,74.0645402259,-9.46,107.2507,0.6664,0.657121879882,1.80078
2023-02-02T07:02:02Z,13.98135,-9.081612,0.0,84.21774,0,1156,0.196,-10.95081,1.2348,43690,0.0,1020.699,0.0,1.235,1018.899,0,49.37370503,-8.95,4.685037,0.6272,0.57670117,1.80078
2023-02-02T07:17:00Z,13.96473,-8.877533,0.0,86.22454,0,1156,1.4112,-10.41989,1.5876,43690,0.0,1020.699,0.0,1.45,1018.899,0,41.0336658124,-8.84,350.0736,0.9604,0.915285194675,1.80078
2023-02-02T07:32:01Z,13.95711,-8.711752,0.0,86.8589,0,1156,0.0,-9.913818,1.4896,43690,0.0,1020.699,0.0,0.96,1018.899,0,68.1694196854,-8.639999,70.89373,0.8035999,0.796336455882,1.80078